TimeMDT,TemperatureF,Dew PointF,Humidity,Sea Level PressureIn,VisibilityMPH,Wind Direction,Wind SpeedMPH,Gust SpeedMPH,PrecipitationIn,Events,Conditions,WindDirDegrees,DateUTC
12:53 AM,51.1,48.9,92,29.83,8.0,East,11.5,-,0.00,Rain,Light Rain,100,2013-10-14 06:53:00
1:53 AM,52.0,50.0,93,29.78,10.0,ESE,16.1,-,0.01,,Mostly Cloudy,110,2013-10-14 07:53:00
2:53 AM,53.1,51.1,93,29.77,10.0,SE,3.5,-,N/A,,Mostly Cloudy,140,2013-10-14 08:53:00
3:39 AM,53.6,51.8,94,29.85,10.0,South,4.6,-,N/A,,Overcast,180,2013-10-14 09:39:00
3:53 AM,53.1,51.1,93,29.76,10.0,SE,8.1,-,N/A,,Overcast,140,2013-10-14 09:53:00
4:06 AM,53.6,51.8,94,29.83,10.0,SE,6.9,-,N/A,,Overcast,140,2013-10-14 10:06:00
4:28 AM,51.8,51.8,100,29.84,10.0,WSW,10.4,-,0.00,,Overcast,250,2013-10-14 10:28:00
4:53 AM,51.1,50.0,96,29.74,10.0,Calm,Calm,-,0.00,,Mostly Cloudy,0,2013-10-14 10:53:00
5:37 AM,51.8,50.0,94,29.84,10.0,West,12.7,-,N/A,,Overcast,260,2013-10-14 11:37:00
5:50 AM,50.0,48.2,94,29.85,10.0,West,16.1,23.0,N/A,,Overcast,280,2013-10-14 11:50:00
5:53 AM,50.0,48.9,96,29.78,10.0,West,13.8,23.0,N/A,,Overcast,280,2013-10-14 11:53:00
6:05 AM,50.0,48.2,94,29.84,10.0,WNW,11.5,-,N/A,,Overcast,300,2013-10-14 12:05:00
6:31 AM,50.0,48.2,94,29.84,10.0,NW,11.5,-,N/A,,Overcast,310,2013-10-14 12:31:00
6:53 AM,50.0,48.0,93,29.81,10.0,West,13.8,18.4,N/A,,Overcast,280,2013-10-14 12:53:00
7:53 AM,48.9,46.9,93,29.79,10.0,NW,9.2,-,0.01,Rain,Light Rain,320,2013-10-14 13:53:00
8:53 AM,48.9,48.0,97,29.77,10.0,NW,10.4,-,0.00,,Overcast,310,2013-10-14 14:53:00
9:33 AM,48.2,48.2,100,29.85,10.0,West,9.2,-,0.00,Rain,Light Rain,280,2013-10-14 15:33:00
9:53 AM,50.0,48.0,93,29.78,10.0,WNW,16.1,24.2,0.01,Rain,Light Rain,300,2013-10-14 15:53:00
10:13 AM,50.0,48.2,94,29.83,10.0,WNW,17.3,21.9,0.00,,Overcast,300,2013-10-14 16:13:00
10:35 AM,48.2,46.4,93,29.83,10.0,WNW,24.2,33.4,0.00,,Overcast,300,2013-10-14 16:35:00
10:53 AM,46.9,44.1,90,29.82,10.0,NW,25.3,33.4,0.00,,Overcast,320,2013-10-14 16:53:00
11:31 AM,46.4,41.0,81,29.87,10.0,NNW,25.3,33.4,N/A,,Overcast,330,2013-10-14 17:31:00
11:53 AM,45.0,41.0,86,29.86,10.0,NW,23.0,29.9,N/A,,Overcast,310,2013-10-14 17:53:00
12:53 PM,43.0,37.9,82,29.87,10.0,WNW,25.3,34.5,0.00,Rain,Light Rain,300,2013-10-14 18:53:00
1:53 PM,39.0,37.0,93,29.91,8.0,WNW,19.6,31.1,0.03,Rain,Light Rain,300,2013-10-14 19:53:00
2:01 PM,37.4,35.6,93,29.92,6.0,WNW,23.0,33.4,0.02,Rain,Rain,300,2013-10-14 20:01:00
2:53 PM,39.9,37.9,93,29.93,10.0,NW,23.0,33.4,0.07,Rain,Light Rain,310,2013-10-14 20:53:00
3:04 PM,39.2,37.4,93,29.95,10.0,NW,31.1,40.3,0.01,Rain,Light Rain,310,2013-10-14 21:04:00
3:53 PM,39.9,37.0,89,29.96,10.0,NW,24.2,36.8,0.01,Rain,Light Rain,310,2013-10-14 21:53:00
4:10 PM,41.0,35.6,81,29.98,10.0,NW,25.3,42.6,0.01,Rain,Light Rain,310,2013-10-14 22:10:00
4:50 PM,41.0,35.6,81,30.00,10.0,WNW,27.6,41.4,0.01,,Mostly Cloudy,300,2013-10-14 22:50:00
4:53 PM,41.0,35.1,79,29.99,10.0,NW,32.2,43.7,0.01,,Overcast,310,2013-10-14 22:53:00
5:34 PM,39.2,33.8,81,30.02,10.0,NW,28.8,44.9,0.00,,Overcast,320,2013-10-14 23:34:00
5:53 PM,39.9,34.0,79,30.03,10.0,NW,26.5,38.0,0.00,,Overcast,310,2013-10-14 23:53:00
6:18 PM,39.2,33.8,81,30.04,10.0,NW,26.5,39.1,N/A,,Overcast,310,2013-10-15 00:18:00
6:53 PM,39.9,33.1,77,30.06,10.0,NW,19.6,36.8,N/A,,Overcast,310,2013-10-15 00:53:00
7:15 PM,39.2,33.8,81,30.08,10.0,NW,20.7,34.5,N/A,,Overcast,310,2013-10-15 01:15:00
7:35 PM,39.2,33.8,81,30.08,10.0,WNW,23.0,33.4,N/A,,Overcast,300,2013-10-15 01:35:00
7:53 PM,39.0,33.1,79,30.09,10.0,NW,21.9,34.5,N/A,,Overcast,310,2013-10-15 01:53:00
8:53 PM,37.9,32.0,79,30.12,10.0,NW,27.6,38.0,N/A,,Overcast,310,2013-10-15 02:53:00
9:53 PM,37.9,30.0,73,30.14,10.0,NW,31.1,40.3,N/A,,Overcast,310,2013-10-15 03:53:00
10:53 PM,37.9,30.0,73,30.18,10.0,NW,25.3,38.0,N/A,,Overcast,320,2013-10-15 04:53:00
11:53 PM,37.9,30.0,73,30.18,10.0,NW,24.2,35.7,N/A,,Overcast,320,2013-10-15 05:53:00